PBO Station Position Time Series. Reference Frame : NAM14
Format Version,1.1.0
4-character ID,P089
Station name,Wanship___UT2004
Begin Date, 2004-08-28
End Date, 2008-09-10
Release Date, 2019-08-30
Reference position, 40.8070867454 North Latitude, -111.4152898164 East Longitude, 1815.73467 meters elevation,
Date, North (mm), East (mm), Vertical (mm), North Std. Deviation (mm), East Std. Deviation (mm),              Vertical Std. Deviation (mm), Quality,
2004-08-28,0.00, 0.00, 0.00, 2.08, 1.66, 7.29, repro,
2004-08-29,0.59, -0.49, -0.52, 2.14, 1.70, 7.37, repro,
2004-08-30,-0.54, 0.38, 3.26, 2.16, 1.71, 7.49, repro,
2004-08-31,0.94, 0.52, -4.10, 2.15, 1.68, 7.40, repro,
2004-09-01,0.78, -0.10, -1.23, 2.13, 1.65, 7.28, repro,
2004-09-02,-0.05, -0.10, 1.35, 2.11, 1.66, 7.26, repro,
2004-09-03,0.87, -0.21, 3.76, 2.09, 1.63, 7.18, repro,
2004-09-04,0.75, 0.16, 4.37, 2.10, 1.65, 7.25, repro,
2004-09-05,0.42, 0.57, 0.79, 2.11, 1.65, 7.30, repro,
2004-09-06,0.24, 0.31, -2.76, 2.11, 1.64, 7.34, repro,
2004-09-07,0.07, 0.03, -3.32, 2.07, 1.63, 7.22, repro,
2004-09-08,0.34, -0.77, 0.08, 2.19, 1.67, 7.33, repro,
2004-09-09,1.22, -0.80, 5.01, 2.14, 1.64, 7.26, repro,
2004-09-10,-0.79, -1.96, 1.06, 2.09, 1.61, 7.22, repro,
2004-09-11,0.58, -1.00, -0.74, 2.10, 1.62, 7.31, repro,
2004-09-12,0.04, -1.02, 9.51, 2.10, 1.64, 7.34, repro,
2004-09-13,-0.77, -0.54, 5.83, 2.14, 1.66, 7.42, repro,
2004-09-14,2.88, -4.25, -5.15, 2.07, 1.62, 7.25, repro,
2004-09-15,1.49, -2.02, 5.09, 2.09, 1.63, 7.22, repro,
2004-09-16,0.48, -2.19, 4.51, 2.07, 1.60, 7.17, repro,
2004-09-17,-1.14, -2.56, 6.43, 2.09, 1.62, 7.25, repro,
2004-09-18,2.00, 0.73, 17.79, 2.08, 1.63, 7.23, repro,
2004-09-19,3.73, 0.36, 26.58, 2.08, 1.64, 7.29, repro,
2004-09-20,0.92, -0.97, 4.32, 2.04, 1.61, 7.11, repro,
2004-09-21,0.11, -0.85, 2.24, 2.11, 1.64, 7.34, repro,
2004-09-22,-0.48, -0.13, -1.47, 2.19, 1.66, 7.41, repro,
2004-09-23,1.14, -0.32, 3.15, 2.20, 1.65, 7.39, repro,
2004-09-24,0.59, -1.13, 4.60, 2.09, 1.63, 7.24, repro,
2004-09-25,0.25, -0.87, 2.04, 2.07, 1.62, 7.14, repro,
2004-09-26,-0.39, -1.56, 1.28, 2.02, 1.61, 7.08, repro,
2004-09-27,0.99, 0.02, 2.32, 2.10, 1.65, 7.30, repro,
2004-09-28,-0.19, -1.39, 1.77, 2.06, 1.61, 7.18, repro,
2004-09-29,-0.57, 0.56, 5.33, 2.10, 1.63, 7.29, repro,
2004-09-30,1.15, -0.48, 6.07, 2.03, 1.59, 7.09, repro,
2004-10-01,-0.03, 0.33, -0.45, 2.01, 1.61, 7.07, repro,
2004-10-02,1.40, -0.40, 1.79, 2.04, 1.61, 7.15, repro,
2004-10-03,0.69, -0.03, -3.03, 2.05, 1.62, 7.20, repro,
2004-10-04,-0.18, -0.11, -0.37, 2.06, 1.61, 7.21, repro,
2004-10-05,0.33, -0.14, -3.11, 2.05, 1.60, 7.18, repro,
2004-10-06,-0.19, -0.51, 4.60, 2.04, 1.62, 7.15, repro,
2004-10-07,-0.29, -0.39, 2.78, 2.04, 1.62, 7.15, repro,
2004-10-08,0.26, -0.25, 1.22, 2.09, 1.65, 7.29, repro,
2004-10-09,0.08, -0.10, 1.00, 2.18, 1.67, 7.48, repro,
2004-10-10,-0.65, -1.85, 8.65, 2.10, 1.66, 7.38, repro,
2004-10-11,0.26, 0.22, 3.74, 2.10, 1.64, 7.33, repro,
2004-10-12,1.82, -0.07, 7.17, 2.10, 1.66, 7.41, repro,
2004-10-13,1.25, 0.98, -3.61, 2.10, 1.66, 7.32, repro,
2004-10-14,1.38, 0.20, 2.33, 2.06, 1.62, 7.19, repro,
2004-10-15,1.25, -2.04, 8.18, 2.13, 1.64, 7.37, repro,
2004-10-16,0.48, -3.23, 9.02, 2.05, 1.62, 7.20, repro,
2004-10-17,-1.88, -1.05, 14.08, 2.14, 1.65, 7.36, repro,
2004-10-18,1.77, -1.03, 6.52, 2.15, 1.64, 7.50, repro,
2004-10-19,-0.25, -0.30, 1.45, 2.12, 1.62, 7.20, repro,
2004-10-20,2.45, 1.06, 9.93, 2.14, 1.63, 7.25, repro,
2004-10-21,0.81, 0.61, 5.47, 2.16, 1.63, 7.50, repro,
2004-10-22,0.60, -1.60, 4.50, 2.10, 1.60, 7.19, repro,
2004-10-23,-0.43, -0.26, 9.94, 2.13, 1.63, 7.45, repro,
2004-10-24,1.75, 0.64, 3.63, 2.08, 1.60, 7.14, repro,
2004-10-25,1.53, 0.79, 1.82, 2.11, 1.62, 7.41, repro,
2004-10-26,2.55, -0.60, 2.20, 2.20, 1.68, 7.54, repro,
2004-10-27,2.63, -0.57, 10.43, 2.09, 1.65, 7.26, repro,
2004-10-28,-0.73, -0.38, 6.83, 2.06, 1.60, 7.10, repro,
2004-10-29,-0.08, 0.72, -5.33, 2.11, 1.61, 7.35, repro,
2004-10-30,1.34, 0.53, 5.86, 2.16, 1.66, 7.53, repro,
2004-10-31,0.96, 0.57, -3.20, 2.10, 1.61, 7.32, repro,
2004-11-01,1.82, -1.45, -8.05, 2.15, 1.67, 7.54, repro,
2004-11-02,0.23, -0.50, -7.46, 2.06, 1.61, 7.15, repro,
2004-11-03,1.08, -0.91, -1.97, 2.09, 1.64, 7.25, repro,
2004-11-04,1.26, -0.40, -1.90, 2.07, 1.60, 7.09, repro,
2004-11-05,1.97, 0.07, -4.36, 2.19, 1.74, 7.72, repro,
2004-11-06,1.64, -0.64, -1.56, 2.13, 1.71, 7.41, repro,
2004-11-07,0.11, -0.37, -6.75, 2.09, 1.68, 7.28, repro,
2004-11-08,0.41, -0.73, 1.21, 2.29, 1.71, 7.82, repro,
2004-11-09,-0.08, -1.46, 0.12, 2.11, 1.67, 7.34, repro,
2004-11-10,0.67, -0.08, -5.43, 2.14, 1.70, 7.63, repro,
2004-11-11,1.87, 0.34, -10.89, 2.20, 1.75, 7.73, repro,
2004-11-12,1.56, 0.30, -9.16, 2.08, 1.63, 7.28, repro,
2004-11-13,1.39, 0.61, -12.63, 2.01, 1.60, 6.94, repro,
2004-11-14,0.72, -0.42, -12.26, 2.08, 1.66, 7.19, repro,
2004-11-15,0.75, -0.38, -6.62, 2.04, 1.63, 7.07, repro,
2004-11-16,1.58, -0.60, -6.00, 2.07, 1.66, 7.26, repro,
2004-11-17,3.03, -0.73, -10.45, 2.06, 1.66, 7.21, repro,
2004-11-18,2.36, -1.43, -7.88, 2.02, 1.64, 7.10, repro,
2004-11-19,1.14, -0.89, -1.85, 2.09, 1.69, 7.31, repro,
2004-11-20,2.76, -0.63, -1.78, 2.10, 1.67, 7.29, repro,
2004-11-21,2.62, -1.23, -3.81, 2.25, 1.80, 7.98, repro,
2004-11-22,1.54, 1.40, -7.65, 2.06, 1.66, 7.28, repro,
2004-11-23,1.88, -0.33, 0.30, 2.07, 1.61, 7.14, repro,
2004-11-24,2.22, -1.34, -4.92, 2.18, 1.68, 7.57, repro,
2004-11-25,3.00, -0.43, -6.39, 2.13, 1.75, 7.58, repro,
2004-11-26,2.06, -1.19, -3.60, 2.11, 1.75, 7.53, repro,
2004-11-27,3.03, -0.19, -6.94, 2.08, 1.69, 7.29, repro,
2004-11-28,2.50, 0.17, -0.39, 2.01, 1.66, 7.18, repro,
2004-11-29,2.22, -2.01, -9.15, 1.99, 1.58, 6.91, repro,
2004-11-30,2.55, -0.19, -9.35, 2.04, 1.64, 7.10, repro,
2004-12-01,2.36, 0.93, -5.67, 2.13, 1.67, 7.34, repro,
2004-12-02,2.33, -0.56, -6.73, 2.10, 1.62, 7.23, repro,
2004-12-03,1.26, 0.02, -7.91, 2.14, 1.69, 7.52, repro,
2004-12-04,1.38, -0.63, -3.45, 2.02, 1.64, 7.15, repro,
2004-12-05,1.92, 0.04, -3.48, 2.04, 1.63, 7.12, repro,
2004-12-06,2.60, -0.02, 1.61, 2.18, 1.76, 7.65, repro,
2004-12-07,1.66, 0.55, 2.22, 2.14, 1.69, 7.43, repro,
2004-12-08,0.40, 1.97, -2.28, 2.09, 1.66, 7.25, repro,
2004-12-09,1.75, 1.54, -9.66, 2.06, 1.69, 7.22, repro,
2004-12-10,2.02, -1.06, -13.63, 2.19, 1.73, 7.51, repro,
2004-12-11,2.51, -0.84, -17.58, 2.11, 1.62, 7.29, repro,
2004-12-12,1.64, -3.32, -10.27, 2.11, 1.66, 7.32, repro,
2004-12-13,1.38, -1.07, -13.34, 2.11, 1.62, 7.33, repro,
2004-12-14,0.69, -1.86, -13.21, 2.12, 1.70, 7.41, repro,
2004-12-15,1.57, -1.50, -12.26, 2.09, 1.64, 7.23, repro,
2004-12-16,3.29, -1.18, -18.45, 2.09, 1.60, 7.13, repro,
2004-12-17,1.57, -0.29, -19.23, 2.03, 1.59, 7.02, repro,
2004-12-18,2.65, -1.54, -17.06, 2.10, 1.64, 7.29, repro,
2004-12-19,2.34, -1.52, -12.56, 2.05, 1.61, 7.09, repro,
2004-12-20,1.13, -4.33, -1.17, 2.04, 1.61, 7.09, repro,
2004-12-21,2.07, -1.54, -4.77, 2.05, 1.59, 7.18, repro,
2004-12-22,1.13, -0.34, -11.87, 2.08, 1.59, 7.25, repro,
2004-12-23,2.79, -0.89, -13.72, 2.01, 1.58, 6.93, repro,
2004-12-24,2.57, -1.42, -9.23, 2.06, 1.61, 7.09, repro,
2004-12-25,3.16, -1.47, -6.01, 2.05, 1.61, 7.04, repro,
2004-12-26,2.08, -0.83, -2.99, 2.16, 1.65, 7.34, repro,
2004-12-27,1.19, 0.93, -7.00, 2.16, 1.65, 7.42, repro,
2004-12-28,1.06, -0.05, -4.39, 2.18, 1.62, 7.32, repro,
2004-12-29,2.41, 2.16, -5.42, 2.14, 1.63, 7.34, repro,
2004-12-30,3.09, -0.83, -8.24, 2.24, 1.65, 7.50, repro,
2004-12-31,2.56, 0.04, -2.20, 2.23, 1.72, 7.61, repro,
2005-01-01,1.17, 1.94, -1.95, 2.18, 1.68, 7.39, repro,
2005-01-02,2.24, 0.36, -8.36, 2.18, 1.65, 7.38, repro,
2005-01-03,-0.46, 0.14, -10.45, 2.20, 1.64, 7.35, repro,
2005-01-04,0.74, -0.39, -9.71, 2.23, 1.68, 7.41, repro,
2005-01-05,1.45, -0.38, -10.77, 2.16, 1.69, 7.42, repro,
2005-01-06,0.09, -0.62, -8.13, 2.27, 1.76, 7.72, repro,
2005-01-07,1.88, -0.36, -3.47, 2.21, 1.70, 7.52, repro,
2005-01-08,1.25, 1.28, -5.69, 2.16, 1.70, 7.43, repro,
2005-01-09,0.26, 0.32, -14.35, 2.13, 1.67, 7.26, repro,
2005-01-10,-0.35, -0.20, -16.86, 2.20, 1.73, 7.63, repro,
2005-01-11,1.22, 1.60, -10.68, 2.21, 1.77, 7.65, repro,
2005-01-12,1.49, 0.46, -1.11, 2.17, 1.68, 7.52, repro,
2005-01-13,0.71, -3.18, -9.14, 2.16, 1.71, 7.51, repro,
2005-01-14,1.49, -3.81, -21.02, 2.18, 1.68, 7.47, repro,
2005-01-15,1.86, -3.63, -21.29, 2.36, 1.88, 8.08, repro,
2005-01-16,0.96, -1.98, -27.14, 2.20, 1.68, 7.43, repro,
2005-01-17,0.58, -0.37, -19.59, 2.07, 1.61, 7.18, repro,
2005-01-18,-0.32, -0.48, -15.57, 2.11, 1.64, 7.31, repro,
2005-01-19,-0.55, -0.90, -18.17, 2.21, 1.66, 7.48, repro,
2005-01-20,-0.15, -2.04, -14.42, 2.18, 1.69, 7.53, repro,
2005-01-21,1.05, -0.83, -9.79, 2.10, 1.64, 7.27, repro,
2005-01-22,0.37, 0.10, -13.50, 2.11, 1.64, 7.25, repro,
2005-01-23,0.96, -1.08, -13.94, 2.07, 1.61, 7.19, repro,
2005-01-24,0.81, -0.32, -16.02, 2.12, 1.65, 7.35, repro,
2005-01-25,-0.51, -1.70, -6.00, 2.17, 1.69, 7.58, repro,
2005-01-26,1.86, -0.87, -13.11, 2.11, 1.67, 7.27, repro,
2005-01-27,1.13, -1.67, -13.58, 2.06, 1.60, 7.11, repro,
2005-01-28,0.30, 0.46, -13.29, 2.15, 1.72, 7.36, repro,
2005-01-29,0.53, -0.86, -13.99, 2.06, 1.60, 7.14, repro,
2005-01-30,0.51, -1.33, -10.74, 2.08, 1.64, 7.21, repro,
2005-01-31,0.75, -1.07, -11.39, 2.09, 1.64, 7.24, repro,
2005-02-01,0.16, -1.55, -13.99, 2.04, 1.59, 7.05, repro,
2005-02-02,1.25, -1.34, -17.63, 2.03, 1.58, 7.01, repro,
2005-02-03,0.47, -0.62, -16.59, 2.09, 1.60, 7.18, repro,
2005-02-04,0.50, -1.49, -15.43, 2.04, 1.58, 7.04, repro,
2005-02-05,0.45, -1.20, -3.35, 2.06, 1.59, 7.12, repro,
2005-02-06,0.49, -0.93, -6.12, 2.04, 1.59, 7.12, repro,
2005-02-07,1.31, -1.54, -12.90, 2.02, 1.56, 6.93, repro,
2005-02-08,0.76, -1.52, -14.64, 2.05, 1.61, 7.10, repro,
2005-02-09,1.69, -1.04, -10.71, 2.06, 1.61, 7.13, repro,
2005-02-10,1.23, -1.76, -12.46, 2.04, 1.57, 7.01, repro,
2005-02-11,1.41, -1.35, -8.09, 2.05, 1.59, 7.06, repro,
2005-02-12,1.15, -1.89, -7.02, 2.04, 1.58, 7.03, repro,
2005-02-13,1.38, -2.34, -6.43, 2.02, 1.56, 6.91, repro,
2005-02-14,2.68, 0.81, -5.83, 2.03, 1.56, 6.95, repro,
2005-02-15,2.22, -0.45, -11.89, 2.04, 1.55, 6.95, repro,
2005-02-16,1.86, -1.64, -12.86, 2.06, 1.58, 7.08, repro,
2005-02-17,0.90, -1.52, -7.58, 2.11, 1.62, 7.24, repro,
2005-02-18,1.40, -1.34, -9.12, 2.02, 1.56, 6.97, repro,
2005-02-19,0.51, -2.20, -12.59, 2.04, 1.56, 6.97, repro,
2005-02-20,1.66, -0.34, -12.92, 2.04, 1.56, 7.00, repro,
2005-02-21,0.81, -2.43, -11.05, 2.10, 1.61, 7.18, repro,
2005-02-22,1.93, -0.97, -12.26, 2.07, 1.59, 7.11, repro,
2005-02-23,0.47, -2.05, -11.25, 2.09, 1.60, 7.18, repro,
2005-02-24,2.09, -1.26, -12.36, 2.09, 1.60, 7.17, repro,
2005-02-25,1.52, -0.89, -16.81, 2.09, 1.59, 7.15, repro,
2005-02-26,1.01, -1.21, -10.44, 2.11, 1.59, 7.15, repro,
2005-02-27,0.04, -1.26, -12.30, 2.09, 1.61, 7.20, repro,
2005-02-28,0.19, -1.96, -6.72, 2.08, 1.59, 7.10, repro,
2005-03-01,1.06, -1.04, -6.48, 2.08, 1.60, 7.15, repro,
2005-03-02,2.69, -0.01, -11.45, 2.10, 1.61, 7.21, repro,
2005-03-03,1.99, -0.91, -10.49, 2.11, 1.60, 7.18, repro,
2005-03-04,1.64, -0.63, -7.70, 2.09, 1.60, 7.15, repro,
2005-03-05,0.95, -0.73, -8.46, 2.11, 1.61, 7.24, repro,
2005-03-06,0.68, -1.19, -15.10, 2.07, 1.60, 7.15, repro,
2005-03-07,2.55, -0.30, -14.10, 2.11, 1.61, 7.26, repro,
2005-03-08,3.30, -1.91, -18.68, 2.11, 1.61, 7.23, repro,
2005-03-09,3.15, -0.99, -15.39, 2.15, 1.63, 7.39, repro,
2005-03-10,0.87, -2.56, -14.64, 2.12, 1.60, 7.21, repro,
2005-03-11,1.15, -1.46, -12.72, 2.10, 1.60, 7.20, repro,
2005-03-12,2.86, -4.65, -9.60, 2.10, 1.59, 7.15, repro,
2005-03-13,3.57, 1.25, -17.59, 2.12, 1.61, 7.22, repro,
2005-03-14,2.51, -1.00, -11.53, 2.10, 1.59, 7.12, repro,
2005-03-15,1.30, -1.49, -8.40, 2.15, 1.62, 7.29, repro,
2005-03-16,2.57, -2.15, -5.67, 2.14, 1.62, 7.26, repro,
2005-03-17,2.81, -3.47, -7.41, 2.11, 1.59, 7.15, repro,
2005-03-18,1.85, -1.68, -7.88, 2.08, 1.57, 7.05, repro,
2005-03-19,1.31, -1.49, -8.27, 2.11, 1.58, 7.12, repro,
2005-03-20,1.41, -1.29, -10.75, 2.11, 1.59, 7.18, repro,
2005-03-21,1.78, -1.59, -13.64, 2.11, 1.59, 7.19, repro,
2005-03-22,2.21, -0.89, -6.41, 2.10, 1.60, 7.22, repro,
2005-03-23,2.65, 1.05, -7.68, 2.10, 1.59, 7.17, repro,
2005-03-24,2.89, -1.33, -7.89, 2.08, 1.57, 7.06, repro,
2005-03-25,2.54, -2.23, -7.98, 2.09, 1.59, 7.16, repro,
2005-03-26,1.38, -1.85, -10.91, 2.09, 1.59, 7.18, repro,
2005-03-27,1.54, -1.99, -8.14, 2.12, 1.60, 7.25, repro,
2005-03-28,1.72, -1.27, -0.13, 2.11, 1.59, 7.18, repro,
2005-03-29,1.41, -0.20, -5.27, 2.13, 1.63, 7.30, repro,
2005-03-30,2.56, -4.23, -10.39, 2.09, 1.58, 7.06, repro,
2005-03-31,2.55, -1.44, -11.45, 2.20, 1.62, 7.49, repro,
2005-04-01,1.38, -1.93, -18.01, 2.12, 1.60, 7.22, repro,
2005-04-02,1.20, -1.92, -9.22, 2.12, 1.60, 7.20, repro,
2005-04-03,1.68, -2.34, -6.39, 2.17, 1.62, 7.43, repro,
2005-04-04,1.67, -0.54, 0.50, 2.25, 1.66, 7.67, repro,
2005-04-05,2.37, -1.50, -8.10, 2.10, 1.61, 7.20, repro,
2005-04-06,1.54, -0.88, -16.28, 2.22, 1.69, 7.56, repro,
2005-04-07,2.40, -1.34, -3.12, 2.12, 1.61, 7.25, repro,
2005-04-08,1.01, -2.17, -3.41, 2.16, 1.63, 7.40, repro,
2005-04-09,2.06, -2.58, 0.56, 2.16, 1.62, 7.44, repro,
2005-04-10,3.74, -1.80, -9.03, 2.15, 1.62, 7.35, repro,
2005-04-11,2.08, -1.38, -2.25, 2.16, 1.64, 7.41, repro,
2005-04-12,0.79, -1.19, -11.28, 2.10, 1.61, 7.19, repro,
2005-04-13,1.57, -0.29, 0.98, 2.16, 1.62, 7.41, repro,
2005-04-14,1.76, -1.75, -6.11, 2.21, 1.68, 7.43, repro,
2005-04-15,1.73, -1.46, -11.59, 2.16, 1.63, 7.34, repro,
2005-04-16,2.05, -1.52, -14.28, 2.12, 1.60, 7.19, repro,
2005-04-17,1.38, -1.39, -6.36, 2.13, 1.59, 7.15, repro,
2005-04-18,2.10, -0.23, -1.45, 2.13, 1.59, 7.20, repro,
2005-04-19,0.66, -2.33, -10.94, 2.12, 1.60, 7.18, repro,
2005-04-20,2.15, 0.69, -13.41, 2.23, 1.63, 7.62, repro,
2005-04-21,2.07, -1.29, -17.65, 2.18, 1.65, 7.56, repro,
2005-04-22,3.40, -1.07, -18.26, 2.13, 1.60, 7.19, repro,
2005-04-23,2.46, -0.68, -9.12, 2.14, 1.59, 7.20, repro,
2005-04-24,1.58, -2.29, -6.83, 2.14, 1.61, 7.31, repro,
2005-04-25,1.05, -1.91, -11.88, 2.10, 1.58, 7.09, repro,
2005-04-26,1.59, 0.67, -12.14, 2.15, 1.62, 7.38, repro,
2005-04-27,4.18, -1.45, -16.85, 2.13, 1.60, 7.20, repro,
2005-04-28,2.34, -1.57, -16.30, 2.17, 1.64, 7.37, repro,
2005-04-29,3.17, -2.07, -12.50, 2.13, 1.59, 7.19, repro,
2005-04-30,3.19, -2.79, -18.17, 2.10, 1.59, 7.15, repro,
2005-05-01,2.17, -0.88, -15.59, 2.15, 1.62, 7.38, repro,
2005-05-02,2.71, -0.77, -8.42, 2.10, 1.60, 7.15, repro,
2005-05-03,2.24, -1.27, -10.44, 2.17, 1.67, 7.54, repro,
2005-05-04,1.92, -1.15, -12.15, 2.15, 1.62, 7.32, repro,
2005-05-05,1.64, -2.73, -2.77, 2.13, 1.60, 7.18, repro,
2005-05-06,3.14, -0.74, -6.52, 2.11, 1.60, 7.17, repro,
2005-05-07,2.68, -0.95, -10.54, 2.11, 1.60, 7.12, repro,
2005-05-08,2.08, -1.46, -9.68, 2.12, 1.61, 7.18, repro,
2005-05-09,3.95, -0.71, -11.12, 2.15, 1.62, 7.30, repro,
2005-05-10,3.58, -2.00, -3.81, 2.22, 1.62, 7.53, repro,
2005-05-11,3.02, -0.57, -13.96, 2.21, 1.66, 7.57, repro,
2005-05-12,2.71, -0.95, -14.88, 2.18, 1.69, 7.54, repro,
2005-05-13,2.33, -0.92, -19.77, 2.20, 1.72, 7.63, repro,
2005-05-14,3.94, -0.60, -17.46, 2.22, 1.71, 7.60, repro,
2005-05-15,3.34, -1.23, -13.42, 2.20, 1.68, 7.50, repro,
2005-05-16,1.05, -1.40, 4.92, 2.18, 1.66, 7.44, repro,
2005-05-17,2.27, -3.12, -11.14, 2.23, 1.67, 7.46, repro,
2005-05-18,2.88, -1.94, -6.38, 2.25, 1.68, 7.51, repro,
2005-05-19,1.76, 2.05, -9.91, 2.17, 1.67, 7.44, repro,
2005-05-20,1.32, -2.11, -5.76, 2.17, 1.66, 7.41, repro,
2005-05-21,2.60, -1.42, -3.40, 2.23, 1.74, 7.63, repro,
2005-05-22,1.35, -0.68, -11.45, 2.15, 1.64, 7.32, repro,
2005-05-23,2.18, -1.42, -8.29, 2.15, 1.64, 7.31, repro,
2005-05-24,2.34, -0.22, -14.47, 2.18, 1.66, 7.42, repro,
2005-05-25,1.18, -0.64, -16.84, 2.18, 1.66, 7.39, repro,
2005-05-26,3.73, -0.02, -13.10, 2.17, 1.66, 7.36, repro,
2005-05-27,1.62, -0.58, -13.45, 2.17, 1.63, 7.31, repro,
2005-05-28,1.32, -1.81, -5.22, 2.17, 1.64, 7.34, repro,
2005-05-29,0.90, 0.07, -9.57, 2.17, 1.65, 7.37, repro,
2005-05-30,2.51, -0.35, -3.99, 2.18, 1.66, 7.41, repro,
2005-05-31,0.80, -0.21, -11.04, 2.19, 1.66, 7.46, repro,
2005-06-01,3.00, -2.86, -11.14, 2.14, 1.60, 7.21, repro,
2005-06-02,3.39, -1.38, -10.59, 2.12, 1.58, 7.14, repro,
2005-06-03,1.97, -0.95, -10.75, 2.12, 1.59, 7.18, repro,
2005-06-04,2.23, -1.65, -8.01, 2.13, 1.60, 7.18, repro,
2005-06-05,2.04, -1.34, -10.32, 2.12, 1.61, 7.22, repro,
2005-06-06,1.94, -0.07, 0.31, 2.13, 1.61, 7.22, repro,
2005-06-07,1.24, -1.01, -3.53, 2.14, 1.60, 7.22, repro,
2005-06-08,1.07, -1.64, -6.07, 2.13, 1.58, 7.16, repro,
2005-06-09,3.49, 0.24, -9.92, 2.15, 1.63, 7.30, repro,
2005-06-10,3.11, 1.03, -9.41, 2.15, 1.64, 7.35, repro,
2005-06-11,1.57, -0.80, -6.59, 2.16, 1.66, 7.38, repro,
2005-06-12,5.03, -4.77, -14.62, 2.24, 1.68, 7.60, repro,
2005-06-13,0.49, -3.47, -8.10, 2.24, 1.67, 7.52, repro,
2005-06-14,1.26, -0.72, -14.14, 2.16, 1.63, 7.29, repro,
2005-06-15,2.28, 1.86, -10.61, 2.14, 1.61, 7.21, repro,
2005-06-16,2.33, 1.47, -13.08, 2.20, 1.63, 7.33, repro,
2005-06-17,3.25, -0.45, 2.70, 2.25, 1.65, 7.43, repro,
2005-06-18,5.01, 1.80, 1.63, 2.16, 1.60, 7.27, repro,
2005-06-19,-0.28, 0.06, -11.28, 2.14, 1.59, 7.12, repro,
2005-06-20,3.60, -1.43, -15.71, 2.11, 1.59, 7.09, repro,
2005-06-21,3.20, -0.27, -15.29, 2.11, 1.60, 7.16, repro,
2005-06-22,0.32, -1.15, -14.50, 2.14, 1.62, 7.25, repro,
2005-06-23,1.99, -2.76, -7.87, 2.31, 1.70, 7.72, repro,
2005-06-24,1.12, -2.80, -4.46, 2.20, 1.65, 7.45, repro,
2005-06-25,2.25, -1.55, -13.13, 2.16, 1.62, 7.21, repro,
2005-06-26,3.43, 0.42, -9.41, 2.19, 1.63, 7.33, repro,
2005-06-27,1.90, -0.01, -5.98, 2.12, 1.59, 7.13, repro,
2005-06-28,3.62, -1.31, -4.67, 2.14, 1.61, 7.21, repro,
2005-06-29,0.19, -2.89, -3.74, 2.13, 1.60, 7.17, repro,
2005-06-30,0.07, -1.29, -7.25, 2.13, 1.60, 7.18, repro,
2005-07-01,1.33, -1.81, -11.54, 2.12, 1.59, 7.11, repro,
2005-07-02,3.82, -1.45, -9.73, 2.10, 1.58, 7.10, repro,
2005-07-03,2.44, -1.43, -8.72, 2.13, 1.61, 7.24, repro,
2005-07-04,1.00, -1.75, -11.70, 2.13, 1.59, 7.17, repro,
2005-07-05,1.29, -2.89, -6.20, 2.19, 1.65, 7.32, repro,
2005-07-06,2.06, -1.19, -6.55, 2.15, 1.65, 7.39, repro,
2005-07-07,2.53, -1.18, -9.30, 2.13, 1.59, 7.16, repro,
2005-07-08,1.81, -1.21, -5.54, 2.11, 1.59, 7.12, repro,
2005-07-09,0.77, -2.67, -1.39, 2.12, 1.60, 7.18, repro,
2005-07-10,1.76, -2.50, -2.41, 2.24, 1.69, 7.57, repro,
2005-07-11,0.70, -2.03, -0.33, 2.18, 1.62, 7.36, repro,
2005-07-12,1.49, 0.39, -11.74, 2.14, 1.64, 7.30, repro,
2005-07-13,1.10, -0.79, -9.99, 2.11, 1.59, 7.13, repro,
2005-07-14,1.01, 0.05, 2.23, 2.14, 1.62, 7.29, repro,
2005-07-15,0.51, 0.70, -3.10, 2.12, 1.60, 7.20, repro,
2005-07-16,-0.31, -0.59, -7.95, 2.13, 1.61, 7.24, repro,
2005-07-17,2.85, -5.23, -12.78, 2.13, 1.61, 7.21, repro,
2005-07-18,1.17, -0.89, -5.39, 2.14, 1.61, 7.23, repro,
2005-07-19,1.57, 0.35, -3.33, 2.13, 1.60, 7.16, repro,
2005-07-20,0.00, 0.25, -2.72, 2.13, 1.59, 7.15, repro,
2005-07-21,0.09, -0.50, -5.95, 2.17, 1.64, 7.30, repro,
2005-07-22,2.23, -2.32, -12.65, 2.15, 1.59, 7.20, repro,
2005-07-23,2.17, 0.85, -15.70, 2.14, 1.61, 7.25, repro,
2005-07-24,0.68, -0.07, -5.65, 2.22, 1.67, 7.46, repro,
2005-07-25,4.12, -1.70, -14.98, 2.27, 1.72, 7.77, repro,
2005-07-26,0.32, -0.19, -7.39, 2.19, 1.69, 7.47, repro,
2005-07-27,0.82, -0.16, -5.14, 2.19, 1.71, 7.43, repro,
2005-07-28,0.65, -1.33, -8.10, 2.19, 1.71, 7.46, repro,
2005-07-29,0.67, -1.35, -10.98, 2.18, 1.65, 7.41, repro,
2005-07-30,0.58, -1.37, -6.72, 2.17, 1.66, 7.38, repro,
2005-07-31,0.33, -0.46, -2.04, 2.16, 1.67, 7.37, repro,
2005-08-01,0.65, -1.23, -7.37, 2.15, 1.65, 7.38, repro,
2005-08-02,1.94, -0.68, -14.38, 2.16, 1.65, 7.35, repro,
2005-08-03,0.05, 0.72, -9.00, 2.34, 1.69, 7.83, repro,
2005-08-04,2.35, 0.28, -21.09, 2.17, 1.61, 7.28, repro,
2005-08-05,0.05, -1.53, -13.18, 2.21, 1.63, 7.36, repro,
2005-08-06,1.34, 0.34, -2.28, 2.16, 1.61, 7.21, repro,
2005-08-07,-0.76, 1.12, -8.67, 2.18, 1.61, 7.28, repro,
2005-08-08,3.39, 0.22, -7.04, 2.15, 1.60, 7.22, repro,
2005-08-09,1.12, 0.09, -5.69, 2.15, 1.59, 7.18, repro,
2005-08-10,0.89, 0.38, -3.76, 2.23, 1.65, 7.51, repro,
2005-08-11,3.23, -1.10, -2.98, 2.22, 1.67, 7.39, repro,
2005-08-12,1.18, -2.12, -7.65, 2.34, 1.73, 7.65, repro,
2005-08-13,2.03, -3.10, -5.85, 2.15, 1.60, 7.20, repro,
2005-08-14,0.73, -0.39, -6.79, 2.18, 1.65, 7.29, repro,
2005-08-15,0.83, 2.64, -8.33, 2.21, 1.66, 7.38, repro,
2005-08-16,2.62, 0.82, -13.68, 2.19, 1.66, 7.39, repro,
2005-08-17,0.69, -0.13, -6.20, 2.23, 1.67, 7.41, repro,
2005-08-18,0.39, -1.12, 0.38, 2.16, 1.60, 7.19, repro,
2005-08-19,1.06, -0.99, -9.66, 2.16, 1.58, 7.15, repro,
2005-08-20,2.15, 1.38, -13.86, 2.20, 1.65, 7.32, repro,
2005-08-21,2.33, -0.10, -8.23, 2.16, 1.61, 7.24, repro,
2005-08-22,1.84, 0.09, -0.83, 2.16, 1.60, 7.20, repro,
2005-08-23,4.07, -1.48, -6.25, 2.19, 1.63, 7.32, repro,
2005-08-24,0.11, -1.51, -5.40, 2.13, 1.60, 7.18, repro,
2005-08-25,2.41, 0.71, -8.11, 2.15, 1.61, 7.25, repro,
2005-08-26,1.27, -1.07, -5.78, 2.14, 1.61, 7.22, repro,
2005-08-27,2.82, 0.94, -7.61, 2.16, 1.61, 7.30, repro,
2005-08-28,2.03, -1.09, -4.86, 2.20, 1.69, 7.54, repro,
2005-08-29,-0.20, -0.94, -0.72, 2.20, 1.65, 7.32, repro,
2005-08-30,2.67, -0.83, 8.20, 2.21, 1.66, 7.42, repro,
2005-08-31,1.89, -0.36, -5.98, 2.18, 1.65, 7.31, repro,
2005-09-01,2.35, -0.56, -5.87, 2.13, 1.61, 7.18, repro,
2005-09-03,0.71, -1.05, -3.41, 2.13, 1.61, 7.17, repro,
2005-09-04,2.64, -0.35, -2.50, 2.16, 1.60, 7.20, repro,
2005-09-05,0.18, -1.19, -3.09, 2.19, 1.62, 7.23, repro,
2005-09-06,2.46, -0.90, -8.78, 2.13, 1.60, 7.12, repro,
2005-09-07,1.75, 0.47, -11.47, 2.22, 1.63, 7.28, repro,
2005-09-08,4.06, -0.25, -6.55, 2.18, 1.61, 7.22, repro,
2005-09-09,0.44, 0.97, 7.07, 2.22, 1.66, 7.46, repro,
2005-09-10,2.58, -0.91, 3.12, 2.21, 1.60, 7.26, repro,
2005-09-11,2.10, -0.55, 2.47, 2.19, 1.61, 7.24, repro,
2005-09-12,2.50, -1.84, -2.78, 2.18, 1.61, 7.25, repro,
2005-09-13,2.53, -1.20, 0.10, 2.31, 1.72, 7.66, repro,
2005-09-14,1.68, -0.61, -4.29, 2.22, 1.65, 7.43, repro,
2005-09-15,2.59, -0.49, -4.52, 2.22, 1.64, 7.41, repro,
2005-09-16,2.45, -1.67, -7.18, 2.22, 1.65, 7.44, repro,
2005-09-17,3.50, -0.51, -0.59, 2.10, 1.58, 7.10, repro,
2005-09-18,3.23, -1.33, -3.82, 2.13, 1.60, 7.19, repro,
2005-09-19,4.06, -2.22, -3.65, 2.18, 1.63, 7.37, repro,
2005-09-20,2.44, -1.28, -3.00, 2.12, 1.58, 7.10, repro,
2005-09-21,4.12, 1.44, -4.61, 2.17, 1.65, 7.42, repro,
2005-09-22,3.21, -0.52, -7.78, 2.11, 1.59, 7.13, repro,
2005-09-23,3.62, 0.38, -8.06, 2.11, 1.60, 7.12, repro,
2005-09-24,3.91, 1.05, -4.19, 2.18, 1.64, 7.39, repro,
2005-09-25,2.94, 0.27, -4.17, 2.18, 1.64, 7.40, repro,
2005-09-26,2.23, -2.21, 2.17, 2.18, 1.64, 7.37, repro,
2005-09-27,4.19, -0.73, 4.94, 2.18, 1.66, 7.44, repro,
2005-09-28,3.83, -1.40, -6.61, 2.22, 1.63, 7.42, repro,
2005-09-29,2.87, -0.08, 3.12, 2.21, 1.62, 7.38, repro,
2005-09-30,2.40, -0.74, 6.42, 2.13, 1.61, 7.21, repro,
2005-10-01,3.20, -1.15, 0.22, 2.15, 1.60, 7.19, repro,
2005-10-02,4.31, -2.99, 3.44, 2.18, 1.65, 7.38, repro,
2005-10-03,6.22, -0.25, 4.77, 2.14, 1.63, 7.26, repro,
2005-10-04,5.64, -1.33, -9.17, 2.17, 1.61, 7.25, repro,
2005-10-05,3.34, -1.37, -5.38, 2.20, 1.61, 7.41, repro,
2005-10-06,3.66, -0.67, -5.93, 2.16, 1.60, 7.20, repro,
2005-10-07,2.69, -1.24, 1.65, 2.21, 1.60, 7.38, repro,
2005-10-08,2.67, -1.40, 1.25, 2.14, 1.59, 7.09, repro,
2005-10-09,3.99, 0.64, 1.93, 2.13, 1.58, 7.06, repro,
2005-10-10,3.31, -0.58, -4.26, 2.13, 1.58, 7.08, repro,
2005-10-11,2.80, -1.17, 0.84, 2.18, 1.63, 7.33, repro,
2005-10-12,4.22, -1.57, -3.05, 2.20, 1.64, 7.42, repro,
2005-10-13,3.72, -1.56, -5.22, 2.19, 1.65, 7.35, repro,
2005-10-14,3.30, -0.34, 0.03, 2.14, 1.59, 7.10, repro,
2005-10-15,1.82, 0.03, -6.79, 2.22, 1.63, 7.45, repro,
2005-10-16,1.87, -0.56, -1.14, 2.17, 1.63, 7.32, repro,
2005-10-17,3.91, -1.06, -7.99, 2.18, 1.64, 7.36, repro,
2005-10-18,2.28, -1.06, 2.84, 2.29, 1.73, 7.81, repro,
2005-10-19,3.41, -1.30, 3.38, 2.24, 1.65, 7.55, repro,
2005-10-20,3.45, -1.53, -3.38, 2.24, 1.63, 7.42, repro,
2005-10-21,3.08, -0.55, -4.91, 2.27, 1.69, 7.69, repro,
2005-10-22,3.90, -0.50, -7.11, 2.13, 1.61, 7.18, repro,